Regional Weather Roundup
Issued by NWS

Home | Current Version | Previous Version | Text Only | Print | Product List | Glossary Off
Versions: 1 2 3 4 5 6 7 8 9 10 11 12 13 14 15 16 17 18 19 20 21 22 23 24 25 26 27 28 29 30 31 32 33 34 35 36 37 38 39 40 41 42 43 44 45 46 47 48 49 50

000
ASUS43 KMPX 271701
RWRMN
WEATHER ROUNDUP FOR MINNESOTA
NATIONAL WEATHER SERVICE TWIN CITIES/CHANHASSEN MN
1100 AM CST TUE JAN 27 2015


NOTE: "FAIR" INDICATES FEW OR NO CLOUDS BELOW 12,000 FEET WITH NO
SIGNIFICANT WEATHER AND/OR OBSTRUCTIONS TO VISIBILITY. N/A MEANS
CURRENT SKY AND/OR WEATHER CONDITIONS ARE NOT AVAILABLE.

MNZ060>063-068>070-271800-
   Twin Cities Metro

CITY           SKY/WX    TMP DP  RH WIND       PRES   REMARKS
TWIN CITIES    CLOUDY    32  24  72 SE7       30.18R WCI  26
ST PAUL        CLOUDY    32  25  75 S6        30.20R WCI  26
CRYSTAL        CLOUDY    33  25  72 SE5       30.16R WCI  29
BLAINE         CLOUDY    34  27  75 E6        30.17  WCI  29
LAKEVILLE      CLOUDY    30  27  86 E5        30.17R WCI  25
EDEN PRAIRIE   CLOUDY    34  25  69 E6        30.16R WCI  29
SOUTH ST PAUL  CLOUDY    32  24  73 CALM      30.19R
LAKE ELMO      CLOUDY    32  27  80 E6        30.19R WCI  26
$$
MNZ001>005-007-008-013>017-022>024-027-028-271800-
   Northwest Minnesota

CITY           SKY/WX    TMP DP  RH WIND       PRES   REMARKS
BEMIDJI        CLOUDY    27  26  97 S9        30.09S WCI  18
HALLOCK        CLOUDY    27  27 100 S10       30.03S WCI  17
ROSEAU         CLOUDY    27  21  80 S7        30.06S WCI  19
WARROAD        CLOUDY    25  19  80 S5        30.06F WCI  19
THIEF RVR FALL CLOUDY    27  27 100 S9        30.06S WCI  17
CROOKSTON      CLOUDY    27  27 100 S12       30.08R WCI  16
FOSSTON        CLOUDY    27  25  93 S7        30.07R WCI  19
DETROIT LAKES  CLOUDY    28  28 100 SE10      30.08F WCI  19
MOORHEAD       CLOUDY    28  28 100 S14       30.09S FOG     WCI  17
PARK RAPIDS    CLOUDY    29  26  89 SE12      30.09S WCI  19
MAHNOMEN       CLOUDY    27  26  97 S9        30.07S WCI  18
$$
MNZ006-009>011-018-025>026-271800-
   North Central Minnesota

CITY           SKY/WX    TMP DP  RH WIND       PRES   REMARKS
BAUDETTE       CLOUDY    25  22  88 S8        30.08R WCI  16
FLAG ISLAND    CLOUDY    23  21  93 S6        30.06S WCI  16
INTL FALLS     CLOUDY    25  21  85 VRB3      30.11R
WASKISH        CLOUDY    28  27  93 S5        30.09S WCI  23
BIG FORK       CLOUDY    28  23  80 S6        30.11S WCI  22
LONGVILLE      CLOUDY    30  25  80 SE7       30.11S WCI  23
GRAND RAPIDS   CLOUDY    27  25  93 S8        30.12R WCI  18
CRANE LAKE     CLOUDY    23  21  93 CALM      30.15R
ORR            CLOUDY    25  21  86 S5        30.10S WCI  19
COOK           CLOUDY    25  21  86 S5        30.13R WCI  19
WALKER         CLOUDY    28  24  87 S5        30.10S WCI  22
$$
MNZ012-019>021-037-271800-
   Northeast Minnesota

CITY           SKY/WX    TMP DP  RH WIND       PRES   REMARKS
DULUTH         CLOUDY    27  22  81 S3        30.13R
ELY            CLOUDY    25  21  86 SW7       30.11S WCI  17
HIBBING        CLOUDY    27  22  81 SW6       30.13R WCI  20
EVELETH        CLOUDY    27  23  86 S6        30.14R WCI  20
DULUTH HARBOR  CLOUDY    30  25  80 CALM      30.19R
TWO HARBORS    CLOUDY    30  23  74 SW6       30.13R WCI  24
SILVER BAY     CLOUDY    28  21  74 CALM      30.12S
GRAND MARAIS     N/A     29  20  69 CALM      30.17R
G MARAIS ARPRT   N/A     23  16  74 CALM      30.10S
$$
MNZ029>031-032-039>041-046>048-054>057-064-271800-
   West Central Minnesota

CITY           SKY/WX    TMP DP  RH WIND       PRES   REMARKS
FERGUS FALLS   CLOUDY    28  28 100 SE10      30.13R FOG     WCI  19
WHEATON        FOG       27  27 100 SE13      30.11S VSB 3/4 WCI  16
MORRIS         CLOUDY    30  28  93 SE15      30.10S FOG     WCI  19
ALEXANDRIA     CLOUDY    29  26  89 S10       30.11R WCI  20
ELBOW LAKE     CLOUDY    28  28 100 SE13      30.10R WCI  18
WADENA         CLOUDY    28  27  93 S9        30.11R WCI  20
GLENWOOD       CLOUDY    30  28  93 SE10      30.12R WCI  21
APPLETON       CLOUDY    30  30 100 SE8       30.11F FOG     WCI  23
BENSON         CLOUDY    30  28  93 S9        30.12S WCI  22
ORTONVILLE     FOG       28  27  93 SE14      30.10S VSB 1/4 WCI  17
MADISON        FOG       34  34 100 SE14      30.11S VSB 1/2 WCI  24
WILLMAR        CLOUDY    32  28  86 S6        30.14S WCI  26
$$
MNZ033>034-036-042>043-049>051-058-059-271800-
   Central Minnesota

CITY           SKY/WX    TMP DP  RH WIND       PRES   REMARKS
ST CLOUD       CLOUDY    32  25  75 SE9       30.15R WCI  24
SAUK CENTRE    CLOUDY    30  28  90 SE7       30.13R WCI  23
PAYNESVILLE    CLOUDY    29  26  91 E6        30.14R WCI  23
AITKIN         CLOUDY    34  25  69 S5        30.13R WCI  30
PINE RIVER     CLOUDY    30  25  80 SE8       30.15R WCI  23
BRAINERD       CLOUDY    30  25  81 SW7       30.14R WCI  23
STAPLES        CLOUDY    28  27  93 S7        30.12R WCI  21
LONG PRAIRIE   CLOUDY    30  28  93 SE8       30.12S WCI  23
LITTLE FALLS   CLOUDY    32  27  80 S7        30.14S WCI  26
LITCHFIELD     CLOUDY    34  30  86 CALM      30.15R
BUFFALO        CLOUDY    32  25  75 S3        30.17S
MAPLE LAKE     CLOUDY    33  28  82 SE6       30.16S WCI  28
$$
MNZ037-044-045-052-053-271800-
   East Central Minnesota

CITY           SKY/WX    TMP DP  RH WIND       PRES   REMARKS
PRINCETON      CLOUDY    34  27  75 SE5       30.17R WCI  30
MORA           CLOUDY    32  25  74 SE3       30.18R
CAMBRIDGE      CLOUDY    34  23  64 CALM      30.16R
RUSH CITY      CLOUDY    30  24  76 E3        30.18R
MOOSE LAKE     CLOUDY    30  23  74 S5        30.14R WCI  25
HINCKLEY       CLOUDY    30  27  86 SE5       30.16S WCI  25
CLOQUET        CLOUDY    27  21  80 SE3       30.14R
MCGREGOR       CLOUDY    30  27  86 SE3       30.15R
$$
MNZ071>073-080-081-089-090-097-098-271800-
   Southwest Minnesota

CITY           SKY/WX    TMP DP  RH WIND       PRES   REMARKS
MONTEVIDEO     CLOUDY    30  30 100 S10       30.14S FOG     WCI  21
GRANITE FALLS  CLOUDY    31  29  94 SE10      30.15R WCI  22
CANBY          FOG       30  30  99 SE9       30.11F VSB 1/2 WCI  22
MARSHALL       CLOUDY    28  27  93 E7        30.13S WCI  21
REDWOOD FALLS  CLOUDY    32  29  88 S10       30.15R WCI  24
OLIVIA         CLOUDY    30  28  93 SE8       30.13S WCI  23
PIPESTONE      FOG       30  28  93 SE7       30.08R VSB 1/4 WCI  23
WINDOM         CLOUDY    34  30  86 E8        30.13R WCI  27
WORTHINGTON    CLOUDY    30  28  93 SE13      30.11S WCI  20
JACKSON        MOSUNNY   34  32  93 E10       30.13R WCI  26
TRACY          FOG       31  31  99 SE9       30.13R VSB 3/4 WCI  23
SLAYTON        FOG       30  29  99 SE10      30.11R VSB 1/4 WCI  21
$$
MNZ065>067-074>077-082>085-091>093-271800-
   South Central Minnesota

CITY           SKY/WX    TMP DP  RH WIND       PRES   REMARKS
MANKATO        PTSUNNY   34  25  69 E5        30.16S WCI  30
NEW ULM        CLOUDY    34  28  80 S7        30.15F WCI  28
ST JAMES       CLOUDY    36  30  80 E7        30.17S
FAIRMONT       CLOUDY    34  25  69 SE9       30.14F WCI  26
GLENCOE        CLOUDY    34  29  83 SE6       30.15R WCI  29
FARIBAULT      CLOUDY    34  27  75 CALM      30.17R
OWATONNA       CLOUDY    34  27  75 CALM      30.16S
WASECA         CLOUDY    32  28  86 E7        30.17S WCI  26
ALBERT LEA     CLOUDY    34  28  80 SE5       30.15S WCI  30
$$
MNZ078>079-086>088-094>096-271800-
   Southeast Minnesota

CITY           SKY/WX    TMP DP  RH WIND       PRES   REMARKS
ROCHESTER      CLOUDY    30  25  81 E5        30.16R WCI  25
RED WING       CLOUDY    32  25  74 SE3       30.18S
STANTON        CLOUDY    33  26  75 E3        30.16S
DODGE CENTER   CLOUDY    30  27  86 E3        30.15S
WINONA         CLOUDY    30  23  74 NE5       30.21R WCI  25
AUSTIN         CLOUDY    32  27  80 CALM      30.16S
PRESTON        CLOUDY    28  24  84 E3        30.17R
$$
ABBREVIATIONS USED IN REMARKS
   TC - TEMPERATURES IN CELSIUS
  WCI - WIND CHILL INDEX
   HX - HEAT INDEX
  VSB - VISIBILITY
$$


USA.gov is the U.S. government's official web portal to all federal, state and local government web resources and services.